Time,TemperatureF,DewpointF,PressureIn,WindDirection,WindDirectionDegrees,WindSpeedMPH,WindSpeedGustMPH,Humidity,HourlyPrecipIn,Conditions,Clouds,dailyrainin,SoftwareType,DateUTC
2013-08-03 00:42:00,71.0,70.0,29.97,SSW,197,0.0,0.0,96,0.00,,,0.00,,2013-08-03 05:42:00,
2013-08-03 01:02:00,71.0,70.0,29.97,SSW,197,0.0,0.0,96,0.00,,,0.00,,2013-08-03 06:02:00,
2013-08-03 01:12:00,71.0,70.0,29.96,SSW,197,0.0,0.0,97,0.00,,,0.00,,2013-08-03 06:12:00,
2013-08-03 01:42:00,71.0,70.0,29.96,SSW,197,0.0,0.0,96,0.00,,,0.00,,2013-08-03 06:42:00,
2013-08-03 01:52:00,70.0,69.0,29.96,SSW,197,0.0,0.0,96,0.00,,,0.00,,2013-08-03 06:52:00,
2013-08-03 02:02:00,70.0,69.0,29.95,SSW,197,0.0,0.0,96,0.00,,,0.00,,2013-08-03 07:02:00,
2013-08-03 02:12:00,70.0,69.0,29.95,SSW,197,0.0,0.0,97,0.00,,,0.00,,2013-08-03 07:12:00,
2013-08-03 02:22:00,70.0,69.0,29.96,SSW,197,0.0,0.0,96,0.00,,,0.00,,2013-08-03 07:22:00,
2013-08-03 02:32:00,70.0,69.0,29.96,SSW,197,0.0,0.0,96,0.00,,,0.00,,2013-08-03 07:32:00,
2013-08-03 02:43:00,70.0,69.0,29.95,SSW,197,0.0,0.0,96,0.00,,,0.00,,2013-08-03 07:43:00,
2013-08-03 02:52:00,70.0,69.0,29.95,SSW,197,0.0,0.0,96,0.00,,,0.00,,2013-08-03 07:52:00,
2013-08-03 03:02:00,70.0,69.0,29.94,SSW,197,0.0,0.0,96,0.00,,,0.00,,2013-08-03 08:02:00,
2013-08-03 03:12:00,70.0,69.0,29.94,SSW,197,0.0,0.0,96,0.00,,,0.00,,2013-08-03 08:12:00,
2013-08-03 03:22:00,70.0,69.0,29.94,SSW,204,0.0,3.0,96,0.00,,,0.00,,2013-08-03 08:22:00,
2013-08-03 03:32:00,70.0,69.0,29.94,SSW,204,0.0,0.0,96,0.00,,,0.00,,2013-08-03 08:32:00,
2013-08-03 03:43:00,70.0,69.0,29.94,SSW,204,0.0,0.0,96,0.00,,,0.00,,2013-08-03 08:43:00,
2013-08-03 03:52:00,70.0,69.0,29.94,SSW,204,0.0,0.0,96,0.00,,,0.00,,2013-08-03 08:52:00,
2013-08-03 04:02:00,70.0,69.0,29.94,South,184,0.0,1.0,96,0.00,,,0.00,,2013-08-03 09:02:00,
2013-08-03 04:12:00,70.0,69.0,29.94,South,184,0.0,0.0,96,0.00,,,0.00,,2013-08-03 09:12:00,
2013-08-03 04:22:00,70.0,69.0,29.94,South,184,0.0,0.0,96,0.00,,,0.00,,2013-08-03 09:22:00,
2013-08-03 04:32:00,70.0,69.0,29.94,South,184,0.0,0.0,96,0.00,,,0.00,,2013-08-03 09:32:00,
2013-08-03 04:43:00,70.0,69.0,29.94,South,184,0.0,0.0,96,0.00,,,0.00,,2013-08-03 09:43:00,
2013-08-03 04:53:00,70.0,69.0,29.94,South,184,0.0,0.0,96,0.00,,,0.00,,2013-08-03 09:53:00,
2013-08-03 05:02:00,70.0,69.0,29.94,South,184,0.0,0.0,96,0.00,,,0.00,,2013-08-03 10:02:00,
2013-08-03 05:42:00,70.0,69.0,29.94,South,184,0.0,0.0,96,0.00,,,0.00,,2013-08-03 10:42:00,
2013-08-03 05:53:00,70.0,69.0,29.95,South,184,0.0,0.0,96,0.00,,,0.00,,2013-08-03 10:53:00,
2013-08-03 06:02:00,70.0,69.0,29.95,South,184,0.0,0.0,96,0.00,,,0.00,,2013-08-03 11:02:00,
2013-08-03 06:32:00,69.0,68.0,29.96,South,184,0.0,0.0,96,0.00,,,0.00,,2013-08-03 11:32:00,
2013-08-03 06:43:00,70.0,69.0,29.96,South,184,0.0,0.0,96,0.00,,,0.00,,2013-08-03 11:43:00,
2013-08-03 06:53:00,70.0,69.0,29.96,South,184,0.0,0.0,96,0.00,,,0.00,,2013-08-03 11:53:00,
2013-08-03 07:33:00,72.0,70.0,29.98,ESE,111,0.0,0.0,93,0.00,,,0.00,,2013-08-03 12:33:00,
2013-08-03 07:52:00,73.0,70.0,29.98,ESE,111,0.0,0.0,89,0.00,,,0.00,,2013-08-03 12:52:00,
2013-08-03 08:02:00,74.0,70.0,29.99,NE,48,0.0,0.0,88,0.00,,,0.00,,2013-08-03 13:02:00,
2013-08-03 08:52:00,76.0,72.0,29.99,SSE,167,0.0,0.0,86,0.00,,,0.00,,2013-08-03 13:52:00,
2013-08-03 09:02:00,76.0,71.0,29.99,SW,236,1.0,3.0,85,0.00,,,0.00,,2013-08-03 14:02:00,
2013-08-03 09:13:00,76.0,72.0,29.99,South,181,0.0,2.0,86,0.00,,,0.00,,2013-08-03 14:13:00,
2013-08-03 09:33:00,77.0,72.0,29.99,South,187,0.0,4.0,85,0.00,,,0.00,,2013-08-03 14:33:00,
2013-08-03 09:42:00,77.0,72.0,29.99,SW,221,0.0,3.0,84,0.00,,,0.00,,2013-08-03 14:42:00,
2013-08-03 09:52:00,78.0,73.0,29.99,SW,217,2.0,5.0,84,0.00,,,0.00,,2013-08-03 14:52:00,
2013-08-03 10:02:00,77.0,72.0,29.99,West,270,1.0,4.0,84,0.00,,,0.00,,2013-08-03 15:02:00,
2013-08-03 10:12:00,78.0,72.0,30.00,West,269,0.0,5.0,82,0.00,,,0.00,,2013-08-03 15:12:00,
2013-08-03 10:23:00,79.0,73.0,30.00,WSW,249,1.0,5.0,81,0.00,,,0.00,,2013-08-03 15:23:00,
2013-08-03 10:32:00,79.0,72.0,29.99,West,266,0.0,5.0,80,0.00,,,0.00,,2013-08-03 15:32:00,
2013-08-03 10:43:00,80.0,73.0,30.00,West,262,0.0,6.0,80,0.00,,,0.00,,2013-08-03 15:43:00,
2013-08-03 10:53:00,80.0,73.0,30.00,SSW,200,3.0,9.0,79,0.00,,,0.00,,2013-08-03 15:53:00,
2013-08-03 11:02:00,81.0,74.0,30.00,West,267,4.0,7.0,79,0.00,,,0.00,,2013-08-03 16:02:00,
2013-08-03 11:12:00,82.0,74.0,30.00,WNW,288,2.0,6.0,78,0.00,,,0.00,,2013-08-03 16:12:00,
2013-08-03 11:23:00,82.0,74.0,30.00,West,260,4.0,8.0,76,0.00,,,0.00,,2013-08-03 16:23:00,
2013-08-03 11:33:00,83.0,75.0,30.00,North,8,0.0,9.0,77,0.00,,,0.00,,2013-08-03 16:33:00,
2013-08-03 11:43:00,84.0,74.0,30.01,WSW,257,3.0,5.0,72,0.00,,,0.00,,2013-08-03 16:43:00,
2013-08-03 11:53:00,84.0,75.0,30.01,NNW,336,1.0,7.0,74,0.00,,,0.00,,2013-08-03 16:53:00,
2013-08-03 12:03:00,84.0,75.0,30.01,WSW,249,4.0,5.0,74,0.00,,,0.00,,2013-08-03 17:03:00,
2013-08-03 12:12:00,84.0,74.0,30.01,West,266,6.0,7.0,73,0.00,,,0.00,,2013-08-03 17:12:00,
2013-08-03 12:22:00,84.0,75.0,30.01,West,278,3.0,5.0,74,0.00,,,0.00,,2013-08-03 17:22:00,
2013-08-03 12:32:00,84.0,75.0,30.01,WNW,293,2.0,7.0,74,0.00,,,0.00,,2013-08-03 17:32:00,
2013-08-03 12:43:00,84.0,75.0,30.01,North,10,1.0,5.0,74,0.00,,,0.00,,2013-08-03 17:43:00,
2013-08-03 12:52:00,85.0,76.0,30.01,WSW,248,1.0,2.0,75,0.00,,,0.00,,2013-08-03 17:52:00,
2013-08-03 13:02:00,84.0,75.0,30.01,WNW,291,3.0,4.0,75,0.00,,,0.00,,2013-08-03 18:02:00,
2013-08-03 13:12:00,84.0,76.0,30.01,NNW,335,2.0,4.0,78,0.00,,,0.00,,2013-08-03 18:12:00,
2013-08-03 13:22:00,83.0,76.0,30.01,North,359,4.0,4.0,80,0.00,,,0.00,,2013-08-03 18:22:00,
2013-08-03 13:32:00,82.0,76.0,30.02,North,7,5.0,9.0,81,0.00,,,0.00,,2013-08-03 18:32:00,
2013-08-03 13:43:00,82.0,76.0,30.02,North,10,8.0,14.0,81,0.00,,,0.00,,2013-08-03 18:43:00,
2013-08-03 13:53:00,82.0,75.0,30.02,North,4,4.0,10.0,80,0.00,,,0.00,,2013-08-03 18:53:00,
2013-08-03 14:03:00,81.0,74.0,30.02,North,359,5.0,11.0,79,0.00,,,0.00,,2013-08-03 19:03:00,
2013-08-03 14:12:00,81.0,74.0,30.01,North,350,6.0,7.0,79,0.00,,,0.00,,2013-08-03 19:12:00,
2013-08-03 14:22:00,81.0,75.0,30.01,NNE,18,6.0,7.0,81,0.00,,,0.00,,2013-08-03 19:22:00,
2013-08-03 14:32:00,82.0,75.0,30.00,ENE,63,3.0,10.0,80,0.00,,,0.00,,2013-08-03 19:32:00,
2013-08-03 14:42:00,82.0,75.0,30.00,North,359,4.0,7.0,80,0.00,,,0.00,,2013-08-03 19:42:00,
2013-08-03 14:52:00,82.0,75.0,30.00,NNE,28,2.0,7.0,80,0.00,,,0.00,,2013-08-03 19:52:00,
2013-08-03 15:02:00,82.0,75.0,29.99,East,100,3.0,7.0,79,0.00,,,0.00,,2013-08-03 20:02:00,
2013-08-03 15:12:00,82.0,75.0,29.98,NNE,25,3.0,5.0,79,0.00,,,0.00,,2013-08-03 20:12:00,
2013-08-03 15:22:00,83.0,75.0,29.98,SE,143,2.0,6.0,78,0.00,,,0.00,,2013-08-03 20:22:00,
2013-08-03 15:32:00,83.0,75.0,29.98,ENE,59,1.0,4.0,77,0.00,,,0.00,,2013-08-03 20:32:00,
2013-08-03 15:42:00,83.0,75.0,29.97,East,82,0.0,1.0,76,0.00,,,0.00,,2013-08-03 20:42:00,
2013-08-03 15:52:00,83.0,75.0,29.97,NE,44,1.0,4.0,77,0.00,,,0.00,,2013-08-03 20:52:00,
2013-08-03 16:02:00,82.0,74.0,29.97,NE,38,0.0,4.0,78,0.00,,,0.00,,2013-08-03 21:02:00,
2013-08-03 16:12:00,82.0,74.0,29.97,ENE,65,1.0,4.0,78,0.00,,,0.00,,2013-08-03 21:12:00,
2013-08-03 16:22:00,82.0,74.0,29.97,WSW,238,1.0,1.0,78,0.00,,,0.00,,2013-08-03 21:22:00,
2013-08-03 16:32:00,82.0,74.0,29.97,SE,138,1.0,3.0,78,0.00,,,0.00,,2013-08-03 21:32:00,
2013-08-03 16:42:00,83.0,76.0,29.97,SSE,162,3.0,5.0,80,0.00,,,0.00,,2013-08-03 21:42:00,
2013-08-03 16:52:00,83.0,76.0,29.97,ESE,107,1.0,5.0,80,0.00,,,0.00,,2013-08-03 21:52:00,
2013-08-03 17:02:00,83.0,75.0,29.98,ENE,66,2.0,4.0,78,0.00,,,0.00,,2013-08-03 22:02:00,
2013-08-03 17:12:00,84.0,75.0,29.97,SSE,153,0.0,6.0,75,0.00,,,0.00,,2013-08-03 22:12:00,
2013-08-03 17:22:00,84.0,76.0,29.98,East,96,1.0,4.0,76,0.00,,,0.00,,2013-08-03 22:22:00,
2013-08-03 17:33:00,84.0,76.0,29.98,ENE,73,1.0,3.0,77,0.00,,,0.00,,2013-08-03 22:33:00,
2013-08-03 17:43:00,83.0,75.0,29.98,ENE,76,2.0,4.0,77,0.00,,,0.00,,2013-08-03 22:43:00,
2013-08-03 17:52:00,83.0,75.0,29.97,South,180,3.0,5.0,78,0.00,,,0.00,,2013-08-03 22:52:00,
2013-08-03 18:02:00,83.0,75.0,29.97,South,176,3.0,5.0,77,0.00,,,0.00,,2013-08-03 23:02:00,
2013-08-03 18:12:00,82.0,75.0,29.96,East,84,1.0,5.0,79,0.00,,,0.00,,2013-08-03 23:12:00,
2013-08-03 18:22:00,82.0,75.0,29.96,South,181,2.0,3.0,79,0.00,,,0.00,,2013-08-03 23:22:00,
2013-08-03 18:32:00,82.0,75.0,29.96,SE,138,1.0,3.0,80,0.00,,,0.00,,2013-08-03 23:32:00,
2013-08-03 18:43:00,82.0,75.0,29.96,South,174,0.0,3.0,80,0.00,,,0.00,,2013-08-03 23:43:00,
2013-08-03 18:52:00,83.0,76.0,29.95,SE,145,0.0,0.0,80,0.00,,,0.00,,2013-08-03 23:52:00,
2013-08-03 19:02:00,82.0,75.0,29.95,South,172,1.0,2.0,80,0.00,,,0.00,,2013-08-04 00:02:00,
2013-08-03 19:12:00,82.0,76.0,29.95,ESE,115,0.0,3.0,81,0.00,,,0.00,,2013-08-04 00:12:00,
2013-08-03 19:22:00,82.0,76.0,29.96,ESE,115,0.0,0.0,82,0.00,,,0.00,,2013-08-04 00:22:00,
2013-08-03 19:32:00,82.0,76.0,29.96,SE,131,0.0,1.0,82,0.00,,,0.00,,2013-08-04 00:32:00,
2013-08-03 19:42:00,82.0,76.0,29.96,SE,131,0.0,0.0,82,0.00,,,0.00,,2013-08-04 00:42:00,
2013-08-03 19:52:00,82.0,77.0,29.96,SE,131,0.0,0.0,84,0.00,,,0.00,,2013-08-04 00:52:00,
2013-08-03 20:02:00,81.0,76.0,29.97,SE,131,0.0,0.0,85,0.00,,,0.00,,2013-08-04 01:02:00,
2013-08-03 20:12:00,80.0,75.0,29.97,SE,131,0.0,0.0,86,0.00,,,0.00,,2013-08-04 01:12:00,
2013-08-03 20:22:00,80.0,75.0,29.97,SE,131,0.0,0.0,86,0.00,,,0.00,,2013-08-04 01:22:00,
2013-08-03 20:32:00,80.0,76.0,29.97,SE,131,0.0,0.0,87,0.00,,,0.00,,2013-08-04 01:32:00,
2013-08-03 20:42:00,79.0,76.0,29.98,SE,131,0.0,0.0,92,0.00,,,0.00,,2013-08-04 01:42:00,
2013-08-03 20:53:00,79.0,76.0,29.98,SE,131,0.0,0.0,92,0.00,,,0.00,,2013-08-04 01:53:00,
2013-08-03 21:03:00,79.0,76.0,29.98,SE,131,0.0,0.0,92,0.00,,,0.00,,2013-08-04 02:03:00,
2013-08-03 21:12:00,79.0,77.0,29.98,SE,131,0.0,0.0,93,0.00,,,0.00,,2013-08-04 02:12:00,
2013-08-03 21:22:00,79.0,77.0,29.98,SE,131,0.0,0.0,93,0.00,,,0.00,,2013-08-04 02:22:00,
2013-08-03 21:32:00,78.0,76.0,29.99,SE,131,0.0,0.0,93,0.00,,,0.00,,2013-08-04 02:32:00,
2013-08-03 21:42:00,78.0,76.0,29.99,SE,131,0.0,0.0,93,0.00,,,0.00,,2013-08-04 02:42:00,
2013-08-03 21:52:00,78.0,76.0,30.01,SE,131,0.0,0.0,94,0.00,,,0.00,,2013-08-04 02:52:00,
2013-08-03 22:02:00,78.0,76.0,30.01,SE,131,0.0,0.0,94,0.00,,,0.00,,2013-08-04 03:02:00,
2013-08-03 22:12:00,78.0,76.0,30.01,SE,131,0.0,0.0,94,0.00,,,0.00,,2013-08-04 03:12:00,
2013-08-03 22:22:00,78.0,76.0,30.01,SE,131,0.0,0.0,94,0.00,,,0.00,,2013-08-04 03:22:00,
2013-08-03 22:32:00,78.0,76.0,30.01,SE,131,0.0,0.0,93,0.00,,,0.00,,2013-08-04 03:32:00,
2013-08-03 22:42:00,78.0,76.0,30.01,SE,131,0.0,0.0,93,0.00,,,0.00,,2013-08-04 03:42:00,
2013-08-03 22:52:00,78.0,76.0,30.01,NNE,14,1.0,0.0,93,0.00,,,0.00,,2013-08-04 03:52:00,
2013-08-03 23:03:00,78.0,75.0,30.01,North,10,0.0,3.0,92,0.00,,,0.00,,2013-08-04 04:03:00,
2013-08-03 23:12:00,78.0,74.0,30.01,North,11,2.0,6.0,89,0.00,,,0.00,,2013-08-04 04:12:00,
2013-08-03 23:22:00,79.0,75.0,30.01,NE,34,1.0,6.0,89,0.00,,,0.00,,2013-08-04 04:22:00,
2013-08-03 23:32:00,78.0,74.0,30.01,NNE,24,3.0,5.0,89,0.00,,,0.00,,2013-08-04 04:32:00,
2013-08-03 23:42:00,78.0,75.0,30.02,NNE,24,3.0,5.0,90,0.00,,,0.00,,2013-08-04 04:42:00,
2013-08-03 23:52:00,78.0,75.0,30.02,North,3,0.0,0.0,91,0.00,,,0.00,,2013-08-04 04:52:00,